Time,TemperatureF,DewpointF,PressureIn,WindDirection,WindDirectionDegrees,WindSpeedMPH,WindSpeedGustMPH,Humidity,HourlyPrecipIn,Conditions,Clouds,dailyrainin,SolarRadiationWatts/m^2,SoftwareType,DateUTC
2013-08-24 00:01:00,61.7,56.5,30.13,NE,50,0.0,0.0,83,0.00,,,0.00,0,WeatherCatV1.21B27,2013-08-24 04:01:00,
2013-08-24 00:06:00,61.6,56.7,30.13,NE,50,0.0,0.0,84,0.00,,,0.00,0,WeatherCatV1.21B27,2013-08-24 04:06:00,
2013-08-24 00:11:00,61.5,56.6,30.13,NE,50,0.0,0.0,84,0.00,,,0.00,0,WeatherCatV1.21B27,2013-08-24 04:11:00,
2013-08-24 00:16:00,61.3,56.4,30.13,NE,50,0.0,0.0,84,0.00,,,0.00,0,WeatherCatV1.21B27,2013-08-24 04:16:00,
2013-08-24 00:21:00,61.2,56.7,30.13,NE,50,0.0,0.0,85,0.00,,,0.00,0,WeatherCatV1.21B27,2013-08-24 04:21:00,
2013-08-24 00:26:00,61.2,56.7,30.13,NE,50,0.0,0.0,85,0.00,,,0.00,0,WeatherCatV1.21B27,2013-08-24 04:26:00,
2013-08-24 00:31:00,61.2,56.7,30.13,NE,50,0.0,0.0,85,0.00,,,0.00,0,WeatherCatV1.21B27,2013-08-24 04:31:00,
2013-08-24 00:36:00,61.2,57.0,30.14,NE,50,0.0,0.0,86,0.00,,,0.00,0,WeatherCatV1.21B27,2013-08-24 04:36:00,
2013-08-24 00:41:00,61.2,57.0,30.14,NE,50,0.0,0.0,86,0.00,,,0.00,0,WeatherCatV1.21B27,2013-08-24 04:41:00,
2013-08-24 00:46:00,61.2,57.0,30.14,NE,51,2.0,3.0,86,0.00,,,0.00,0,WeatherCatV1.21B27,2013-08-24 04:46:00,
2013-08-24 00:51:00,61.3,57.1,30.14,NE,51,0.0,3.0,86,0.00,,,0.00,0,WeatherCatV1.21B27,2013-08-24 04:51:00,
2013-08-24 00:56:00,61.4,57.2,30.14,NE,51,0.0,3.0,86,0.00,,,0.00,0,WeatherCatV1.21B27,2013-08-24 04:56:00,
2013-08-24 01:01:00,61.5,56.9,30.13,NE,51,0.0,0.0,85,0.00,,,0.00,0,WeatherCatV1.21B27,2013-08-24 05:01:00,
2013-08-24 01:06:00,61.6,57.0,30.13,NE,56,0.0,0.0,85,0.00,,,0.00,0,WeatherCatV1.21B27,2013-08-24 05:06:00,
2013-08-24 01:11:00,61.6,57.0,30.13,ENE,57,0.0,0.0,85,0.00,,,0.00,0,WeatherCatV1.21B27,2013-08-24 05:11:00,
2013-08-24 01:15:00,61.7,56.8,30.13,ENE,57,0.0,0.0,84,0.00,,,0.00,0,WeatherCatV1.21B27,2013-08-24 05:15:00,
2013-08-24 01:20:00,61.7,56.8,30.13,East,84,0.0,0.0,84,0.00,,,0.00,0,WeatherCatV1.21B27,2013-08-24 05:20:00,
2013-08-24 01:25:00,61.8,56.6,30.13,East,84,0.0,2.0,83,0.00,,,0.00,0,WeatherCatV1.21B27,2013-08-24 05:25:00,
2013-08-24 01:30:00,62.1,56.9,30.13,East,84,1.0,2.0,83,0.00,,,0.00,0,WeatherCatV1.21B27,2013-08-24 05:30:00,
2013-08-24 01:35:00,62.3,56.7,30.14,ENE,75,0.0,5.0,82,0.00,,,0.00,0,WeatherCatV1.21B27,2013-08-24 05:35:00,
2013-08-24 01:40:00,62.6,57.0,30.13,ENE,69,0.0,3.0,82,0.00,,,0.00,0,WeatherCatV1.21B27,2013-08-24 05:40:00,
2013-08-24 01:45:00,62.8,56.5,30.13,ENE,69,0.0,1.0,80,0.00,,,0.00,0,WeatherCatV1.21B27,2013-08-24 05:45:00,
2013-08-24 01:50:00,63.0,56.7,30.14,ESE,102,0.0,2.0,80,0.00,,,0.00,0,WeatherCatV1.21B27,2013-08-24 05:50:00,
2013-08-24 01:55:00,63.1,56.5,30.14,East,96,2.0,3.0,79,0.00,,,0.00,0,WeatherCatV1.21B27,2013-08-24 05:55:00,
2013-08-24 02:00:00,63.1,56.1,30.14,East,96,0.0,0.0,78,0.00,,,0.00,0,WeatherCatV1.21B27,2013-08-24 06:00:00,
2013-08-24 02:05:00,63.1,56.1,30.14,ENE,70,0.0,4.0,78,0.00,,,0.00,0,WeatherCatV1.21B27,2013-08-24 06:05:00,
2013-08-24 02:10:00,63.1,55.8,30.14,ENE,67,0.0,5.0,77,0.00,,,0.00,0,WeatherCatV1.21B27,2013-08-24 06:10:00,
2013-08-24 02:15:00,63.1,55.8,30.14,ENE,74,2.0,2.0,77,0.00,,,0.00,0,WeatherCatV1.21B27,2013-08-24 06:15:00,
2013-08-24 02:20:00,63.2,55.9,30.14,ENE,63,0.0,2.0,77,0.00,,,0.00,0,WeatherCatV1.21B27,2013-08-24 06:20:00,
2013-08-24 02:25:00,63.2,55.5,30.14,East,86,0.0,1.0,76,0.00,,,0.00,0,WeatherCatV1.21B27,2013-08-24 06:25:00,
2013-08-24 02:30:00,63.2,55.1,30.14,ENE,69,1.0,4.0,75,0.00,,,0.00,0,WeatherCatV1.21B27,2013-08-24 06:30:00,
2013-08-24 02:35:00,63.2,54.8,30.14,ENE,70,0.0,5.0,74,0.00,,,0.00,0,WeatherCatV1.21B27,2013-08-24 06:35:00,
2013-08-24 02:40:00,63.2,54.8,30.14,East,80,0.0,1.0,74,0.00,,,0.00,0,WeatherCatV1.21B27,2013-08-24 06:40:00,
2013-08-24 02:45:00,63.3,54.5,30.14,East,98,0.0,2.0,73,0.00,,,0.00,0,WeatherCatV1.21B27,2013-08-24 06:45:00,
2013-08-24 02:50:00,63.3,54.5,30.14,ESE,102,0.0,0.0,73,0.00,,,0.00,0,WeatherCatV1.21B27,2013-08-24 06:50:00,
2013-08-24 02:55:00,63.2,54.4,30.14,East,94,0.0,0.0,73,0.00,,,0.00,0,WeatherCatV1.21B27,2013-08-24 06:55:00,
2013-08-24 03:00:00,63.1,54.3,30.14,East,96,0.0,3.0,73,0.00,,,0.00,0,WeatherCatV1.21B27,2013-08-24 07:00:00,
2013-08-24 03:05:00,63.1,54.3,30.15,ENE,75,0.0,0.0,73,0.00,,,0.00,0,WeatherCatV1.21B27,2013-08-24 07:05:00,
2013-08-24 03:10:00,63.1,54.3,30.15,ENE,78,0.0,1.0,73,0.00,,,0.00,0,WeatherCatV1.21B27,2013-08-24 07:10:00,
2013-08-24 03:15:00,63.1,54.3,30.15,East,82,0.0,2.0,73,0.00,,,0.00,0,WeatherCatV1.21B27,2013-08-24 07:15:00,
2013-08-24 03:20:00,63.0,54.2,30.15,East,82,0.0,0.0,73,0.00,,,0.00,0,WeatherCatV1.21B27,2013-08-24 07:20:00,
2013-08-24 03:25:00,62.9,54.1,30.15,East,82,0.0,0.0,73,0.00,,,0.00,0,WeatherCatV1.21B27,2013-08-24 07:25:00,
2013-08-24 03:30:00,62.7,54.3,30.15,ESE,113,0.0,1.0,74,0.00,,,0.00,0,WeatherCatV1.21B27,2013-08-24 07:30:00,
2013-08-24 03:35:00,62.6,54.2,30.15,ESE,112,0.0,0.0,74,0.00,,,0.00,0,WeatherCatV1.21B27,2013-08-24 07:35:00,
2013-08-24 03:40:00,62.3,53.9,30.15,ESE,112,1.0,1.0,74,0.00,,,0.00,0,WeatherCatV1.21B27,2013-08-24 07:40:00,
2013-08-24 03:45:00,62.2,54.2,30.15,ESE,102,0.0,0.0,75,0.00,,,0.00,0,WeatherCatV1.21B27,2013-08-24 07:45:00,
2013-08-24 03:50:00,62.1,54.1,30.15,ESE,102,0.0,0.0,75,0.00,,,0.00,0,WeatherCatV1.21B27,2013-08-24 07:50:00,
2013-08-24 03:55:00,61.9,54.2,30.15,ESE,112,0.0,0.0,76,0.00,,,0.00,0,WeatherCatV1.21B27,2013-08-24 07:55:00,
2013-08-24 04:00:00,61.7,54.0,30.15,ESE,112,0.0,1.0,76,0.00,,,0.00,0,WeatherCatV1.21B27,2013-08-24 08:00:00,
2013-08-24 04:05:00,61.6,54.3,30.15,ESE,113,0.0,2.0,77,0.00,,,0.00,0,WeatherCatV1.21B27,2013-08-24 08:05:00,
2013-08-24 04:10:00,61.4,54.1,30.16,ESE,112,0.0,0.0,77,0.00,,,0.00,0,WeatherCatV1.21B27,2013-08-24 08:10:00,
2013-08-24 04:15:00,61.3,54.4,30.16,ESE,112,0.0,0.0,78,0.00,,,0.00,0,WeatherCatV1.21B27,2013-08-24 08:15:00,
2013-08-24 04:20:00,61.1,54.2,30.16,ESE,113,0.0,0.0,78,0.00,,,0.00,0,WeatherCatV1.21B27,2013-08-24 08:20:00,
2013-08-24 04:25:00,60.9,54.3,30.16,ESE,113,0.0,0.0,79,0.00,,,0.00,0,WeatherCatV1.21B27,2013-08-24 08:25:00,
2013-08-24 04:30:00,60.7,54.1,30.16,ESE,113,0.0,0.0,79,0.00,,,0.00,0,WeatherCatV1.21B27,2013-08-24 08:30:00,
2013-08-24 04:35:00,60.5,54.3,30.16,ESE,113,0.0,0.0,80,0.00,,,0.00,0,WeatherCatV1.21B27,2013-08-24 08:35:00,
2013-08-24 04:40:00,60.4,54.2,30.16,ESE,112,0.0,0.0,80,0.00,,,0.00,0,WeatherCatV1.21B27,2013-08-24 08:40:00,
2013-08-24 04:45:00,60.3,54.4,30.16,ESE,113,0.0,0.0,81,0.00,,,0.00,0,WeatherCatV1.21B27,2013-08-24 08:45:00,
2013-08-24 04:50:00,60.2,54.3,30.16,ESE,113,0.0,0.0,81,0.00,,,0.00,0,WeatherCatV1.21B27,2013-08-24 08:50:00,
2013-08-24 04:55:00,60.1,54.2,30.16,ESE,112,0.0,0.0,81,0.00,,,0.00,0,WeatherCatV1.21B27,2013-08-24 08:55:00,
2013-08-24 05:00:00,60.0,54.2,30.16,ESE,113,0.0,0.0,81,0.00,,,0.00,0,WeatherCatV1.21B27,2013-08-24 09:00:00,
2013-08-24 05:05:00,59.9,54.4,30.17,ESE,112,0.0,0.0,82,0.00,,,0.00,0,WeatherCatV1.21B27,2013-08-24 09:05:00,
2013-08-24 05:10:00,59.8,54.3,30.17,ESE,112,0.0,0.0,82,0.00,,,0.00,0,WeatherCatV1.21B27,2013-08-24 09:10:00,
2013-08-24 05:15:00,59.8,54.3,30.17,ESE,113,0.0,0.0,82,0.00,,,0.00,0,WeatherCatV1.21B27,2013-08-24 09:15:00,
2013-08-24 05:20:00,59.8,54.6,30.17,ESE,113,0.0,0.0,83,0.00,,,0.00,0,WeatherCatV1.21B27,2013-08-24 09:20:00,
2013-08-24 05:25:00,59.8,54.6,30.17,ESE,113,0.0,0.0,83,0.00,,,0.00,0,WeatherCatV1.21B27,2013-08-24 09:25:00,
2013-08-24 05:30:00,59.7,54.5,30.17,ESE,113,0.0,0.0,83,0.00,,,0.00,0,WeatherCatV1.21B27,2013-08-24 09:30:00,
2013-08-24 05:35:00,59.6,54.4,30.17,ESE,112,0.0,0.0,83,0.00,,,0.00,0,WeatherCatV1.21B27,2013-08-24 09:35:00,
2013-08-24 05:40:00,59.6,54.4,30.18,ESE,113,0.0,0.0,83,0.00,,,0.00,0,WeatherCatV1.21B27,2013-08-24 09:40:00,
2013-08-24 05:45:00,59.5,54.3,30.18,ESE,113,0.0,0.0,83,0.00,,,0.00,0,WeatherCatV1.21B27,2013-08-24 09:45:00,
2013-08-24 05:50:00,59.4,54.6,30.18,ESE,113,0.0,0.0,84,0.00,,,0.00,0,WeatherCatV1.21B27,2013-08-24 09:50:00,
2013-08-24 05:55:00,59.2,54.7,30.18,ESE,112,0.0,0.0,85,0.00,,,0.00,0,WeatherCatV1.21B27,2013-08-24 09:55:00,
2013-08-24 06:00:00,59.0,54.5,30.18,ESE,113,0.0,0.0,85,0.00,,,0.00,0,WeatherCatV1.21B27,2013-08-24 10:00:00,
2013-08-24 06:05:00,59.0,54.8,30.18,ESE,112,0.0,0.0,86,0.00,,,0.00,0,WeatherCatV1.21B27,2013-08-24 10:05:00,
2013-08-24 06:10:00,59.0,54.8,30.18,ESE,113,0.0,0.0,86,0.00,,,0.00,0,WeatherCatV1.21B27,2013-08-24 10:10:00,
2013-08-24 06:15:00,59.0,54.8,30.19,ESE,113,0.0,0.0,86,0.00,,,0.00,0,WeatherCatV1.21B27,2013-08-24 10:15:00,
2013-08-24 06:20:00,59.0,55.1,30.19,ESE,113,0.0,0.0,87,0.00,,,0.00,0,WeatherCatV1.21B27,2013-08-24 10:20:00,
2013-08-24 06:25:00,59.0,55.1,30.19,ESE,113,0.0,0.0,87,0.00,,,0.00,0,WeatherCatV1.21B27,2013-08-24 10:25:00,
2013-08-24 06:30:00,58.8,54.9,30.19,ESE,113,0.0,0.0,87,0.00,,,0.00,0,WeatherCatV1.21B27,2013-08-24 10:30:00,
2013-08-24 06:35:00,58.7,54.8,30.19,ESE,113,0.0,0.0,87,0.00,,,0.00,0,WeatherCatV1.21B27,2013-08-24 10:35:00,
2013-08-24 06:40:00,58.6,55.0,30.20,ESE,113,0.0,0.0,88,0.00,,,0.00,0,WeatherCatV1.21B27,2013-08-24 10:40:00,
2013-08-24 06:45:00,58.5,55.0,30.20,ESE,113,0.0,0.0,88,0.00,,,0.00,0,WeatherCatV1.21B27,2013-08-24 10:45:00,
2013-08-24 06:50:00,58.4,54.9,30.20,ESE,113,0.0,0.0,88,0.00,,,0.00,5,WeatherCatV1.21B27,2013-08-24 10:50:00,
2013-08-24 06:55:00,58.4,54.9,30.20,ESE,113,0.0,0.0,88,0.00,,,0.00,7,WeatherCatV1.21B27,2013-08-24 10:55:00,
2013-08-24 07:00:00,58.4,54.9,30.21,ESE,112,0.0,0.0,88,0.00,,,0.00,11,WeatherCatV1.21B27,2013-08-24 11:00:00,
2013-08-24 07:05:00,58.4,54.9,30.21,ESE,113,0.0,0.0,88,0.00,,,0.00,12,WeatherCatV1.21B27,2013-08-24 11:05:00,
2013-08-24 07:10:00,58.3,55.1,30.22,ESE,113,0.0,1.0,89,0.00,,,0.00,14,WeatherCatV1.21B27,2013-08-24 11:10:00,
2013-08-24 07:15:00,58.3,55.1,30.22,ESE,112,0.0,0.0,89,0.00,,,0.00,16,WeatherCatV1.21B27,2013-08-24 11:15:00,
2013-08-24 07:20:00,58.3,55.1,30.22,ESE,113,0.0,0.0,89,0.00,,,0.00,18,WeatherCatV1.21B27,2013-08-24 11:20:00,
2013-08-24 07:24:00,58.2,55.0,30.22,ESE,113,0.0,0.0,89,0.00,,,0.00,19,WeatherCatV1.21B27,2013-08-24 11:24:00,
2013-08-24 07:29:00,58.3,55.4,30.22,ESE,112,0.0,0.0,90,0.00,,,0.00,21,WeatherCatV1.21B27,2013-08-24 11:29:00,
2013-08-24 07:34:00,58.6,55.7,30.22,ESE,113,0.0,0.0,90,0.00,,,0.00,23,WeatherCatV1.21B27,2013-08-24 11:34:00,
2013-08-24 07:39:00,59.0,56.1,30.22,ESE,113,0.0,0.0,90,0.00,,,0.00,25,WeatherCatV1.21B27,2013-08-24 11:39:00,
2013-08-24 07:44:00,59.0,56.1,30.23,ESE,112,0.0,0.0,90,0.00,,,0.00,26,WeatherCatV1.21B27,2013-08-24 11:44:00,
2013-08-24 07:49:00,59.3,56.4,30.23,ESE,112,0.0,0.0,90,0.00,,,0.00,28,WeatherCatV1.21B27,2013-08-24 11:49:00,
2013-08-24 07:54:00,59.6,56.3,30.23,ESE,113,0.0,0.0,89,0.00,,,0.00,30,WeatherCatV1.21B27,2013-08-24 11:54:00,
2013-08-24 07:59:00,59.9,56.7,30.23,ESE,113,0.0,0.0,89,0.00,,,0.00,32,WeatherCatV1.21B27,2013-08-24 11:59:00,
2013-08-24 08:04:00,60.2,56.9,30.24,ESE,113,0.0,0.0,89,0.00,,,0.00,32,WeatherCatV1.21B27,2013-08-24 12:04:00,
2013-08-24 08:09:00,60.5,57.2,30.24,ESE,113,0.0,0.0,89,0.00,,,0.00,33,WeatherCatV1.21B27,2013-08-24 12:09:00,
2013-08-24 08:14:00,60.9,57.3,30.24,ESE,112,0.0,0.0,88,0.00,,,0.00,33,WeatherCatV1.21B27,2013-08-24 12:14:00,
2013-08-24 08:19:00,61.3,57.7,30.24,ESE,113,0.0,0.0,88,0.00,,,0.00,35,WeatherCatV1.21B27,2013-08-24 12:19:00,
2013-08-24 08:24:00,61.8,57.9,30.24,ESE,112,0.0,0.0,87,0.00,,,0.00,35,WeatherCatV1.21B27,2013-08-24 12:24:00,
2013-08-24 08:29:00,62.6,58.3,30.24,ESE,113,0.0,0.0,86,0.00,,,0.00,58,WeatherCatV1.21B27,2013-08-24 12:29:00,
2013-08-24 08:34:00,63.2,58.6,30.25,ESE,113,0.0,0.0,85,0.00,,,0.00,278,WeatherCatV1.21B27,2013-08-24 12:34:00,
2013-08-24 08:39:00,63.8,58.9,30.24,SE,144,0.0,3.0,84,0.00,,,0.00,297,WeatherCatV1.21B27,2013-08-24 12:39:00,
2013-08-24 08:44:00,64.3,58.7,30.24,SE,140,0.0,0.0,82,0.00,,,0.00,315,WeatherCatV1.21B27,2013-08-24 12:44:00,
2013-08-24 08:49:00,65.2,59.2,30.24,SE,140,0.0,0.0,81,0.00,,,0.00,332,WeatherCatV1.21B27,2013-08-24 12:49:00,
2013-08-24 08:54:00,66.5,59.1,30.24,SE,140,0.0,0.0,77,0.00,,,0.00,350,WeatherCatV1.21B27,2013-08-24 12:54:00,
2013-08-24 08:59:00,68.1,59.9,30.24,SE,140,0.0,1.0,75,0.00,,,0.00,367,WeatherCatV1.21B27,2013-08-24 12:59:00,
2013-08-24 09:04:00,69.1,59.3,30.24,SE,127,2.0,3.0,71,0.00,,,0.00,381,WeatherCatV1.21B27,2013-08-24 13:04:00,
2013-08-24 09:09:00,70.0,59.3,30.25,SE,125,0.0,0.0,69,0.00,,,0.00,401,WeatherCatV1.21B27,2013-08-24 13:09:00,
2013-08-24 09:14:00,70.9,59.0,30.25,SE,124,0.0,0.0,66,0.00,,,0.00,418,WeatherCatV1.21B27,2013-08-24 13:14:00,
2013-08-24 09:19:00,71.6,59.6,30.24,SE,124,0.0,0.0,66,0.00,,,0.00,436,WeatherCatV1.21B27,2013-08-24 13:19:00,
2013-08-24 09:24:00,72.0,60.0,30.24,SE,125,0.0,1.0,66,0.00,,,0.00,454,WeatherCatV1.21B27,2013-08-24 13:24:00,
2013-08-24 09:29:00,72.5,58.7,30.24,SE,125,0.0,1.0,62,0.00,,,0.00,469,WeatherCatV1.21B27,2013-08-24 13:29:00,
2013-08-24 09:34:00,73.1,58.4,30.24,East,79,0.0,4.0,60,0.00,,,0.00,485,WeatherCatV1.21B27,2013-08-24 13:34:00,
2013-08-24 09:39:00,73.6,57.4,30.25,East,84,0.0,1.0,57,0.00,,,0.00,499,WeatherCatV1.21B27,2013-08-24 13:39:00,
2013-08-24 09:44:00,74.2,58.0,30.25,East,84,0.0,0.0,57,0.00,,,0.00,513,WeatherCatV1.21B27,2013-08-24 13:44:00,
2013-08-24 09:49:00,74.9,57.6,30.24,ENE,66,0.0,2.0,55,0.00,,,0.00,531,WeatherCatV1.21B27,2013-08-24 13:49:00,
2013-08-24 09:54:00,74.5,56.2,30.24,ENE,73,5.0,7.0,53,0.00,,,0.00,548,WeatherCatV1.21B27,2013-08-24 13:54:00,
2013-08-24 09:59:00,74.7,56.9,30.24,East,84,4.0,6.0,54,0.00,,,0.00,563,WeatherCatV1.21B27,2013-08-24 13:59:00,
2013-08-24 10:04:00,75.0,57.2,30.25,NE,56,0.0,7.0,54,0.00,,,0.00,578,WeatherCatV1.21B27,2013-08-24 14:04:00,
2013-08-24 10:09:00,75.0,56.2,30.25,East,86,1.0,7.0,52,0.00,,,0.00,591,WeatherCatV1.21B27,2013-08-24 14:09:00,
2013-08-24 10:14:00,75.7,56.8,30.25,East,94,3.0,6.0,52,0.00,,,0.00,606,WeatherCatV1.21B27,2013-08-24 14:14:00,
2013-08-24 10:19:00,75.5,56.1,30.25,ENE,77,5.0,5.0,51,0.00,,,0.00,622,WeatherCatV1.21B27,2013-08-24 14:19:00,
2013-08-24 10:24:00,75.5,57.2,30.25,ENE,76,4.0,4.0,53,0.00,,,0.00,635,WeatherCatV1.21B27,2013-08-24 14:24:00,
2013-08-24 10:29:00,76.0,57.1,30.25,NE,36,0.0,3.0,52,0.00,,,0.00,650,WeatherCatV1.21B27,2013-08-24 14:29:00,
2013-08-24 10:34:00,76.5,57.5,30.25,ENE,63,0.0,5.0,52,0.00,,,0.00,664,WeatherCatV1.21B27,2013-08-24 14:34:00,
2013-08-24 10:39:00,77.5,58.5,30.25,ENE,61,0.0,0.0,52,0.00,,,0.00,677,WeatherCatV1.21B27,2013-08-24 14:39:00,
2013-08-24 10:44:00,77.5,59.0,30.25,East,92,0.0,1.0,53,0.00,,,0.00,691,WeatherCatV1.21B27,2013-08-24 14:44:00,
2013-08-24 10:49:00,77.8,58.7,30.25,East,98,2.0,4.0,52,0.00,,,0.00,701,WeatherCatV1.21B27,2013-08-24 14:49:00,
2013-08-24 10:54:00,77.8,59.3,30.25,ESE,120,1.0,3.0,53,0.00,,,0.00,712,WeatherCatV1.21B27,2013-08-24 14:54:00,
2013-08-24 10:59:00,77.6,58.6,30.25,SSE,165,1.0,4.0,52,0.00,,,0.00,726,WeatherCatV1.21B27,2013-08-24 14:59:00,
2013-08-24 11:04:00,77.9,59.4,30.26,East,80,0.0,9.0,53,0.00,,,0.00,740,WeatherCatV1.21B27,2013-08-24 15:04:00,
2013-08-24 11:09:00,77.7,59.2,30.25,NNE,32,0.0,0.0,53,0.00,,,0.00,749,WeatherCatV1.21B27,2013-08-24 15:09:00,
2013-08-24 11:14:00,78.0,59.5,30.26,East,91,0.0,11.0,53,0.00,,,0.00,763,WeatherCatV1.21B27,2013-08-24 15:14:00,
2013-08-24 11:19:00,78.0,60.0,30.26,ENE,74,0.0,4.0,54,0.00,,,0.00,773,WeatherCatV1.21B27,2013-08-24 15:19:00,
2013-08-24 11:24:00,78.5,59.9,30.25,East,80,3.0,3.0,53,0.00,,,0.00,782,WeatherCatV1.21B27,2013-08-24 15:24:00,
2013-08-24 11:29:00,79.2,60.6,30.25,NE,44,5.0,5.0,53,0.00,,,0.00,793,WeatherCatV1.21B27,2013-08-24 15:29:00,
2013-08-24 11:34:00,79.3,59.6,30.25,North,356,0.0,4.0,51,0.00,,,0.00,802,WeatherCatV1.21B27,2013-08-24 15:34:00,
2013-08-24 11:39:00,79.2,59.5,30.25,East,84,0.0,5.0,51,0.00,,,0.00,812,WeatherCatV1.21B27,2013-08-24 15:39:00,
2013-08-24 11:44:00,79.3,59.6,30.25,NNW,345,0.0,6.0,51,0.00,,,0.00,816,WeatherCatV1.21B27,2013-08-24 15:44:00,
2013-08-24 11:49:00,78.8,59.1,30.26,ENE,58,2.0,7.0,51,0.00,,,0.00,833,WeatherCatV1.21B27,2013-08-24 15:49:00,
2013-08-24 11:54:00,78.9,59.2,30.25,East,89,0.0,1.0,51,0.00,,,0.00,835,WeatherCatV1.21B27,2013-08-24 15:54:00,
2013-08-24 11:59:00,79.4,59.7,30.25,SE,126,0.0,2.0,51,0.00,,,0.00,847,WeatherCatV1.21B27,2013-08-24 15:59:00,
2013-08-24 12:04:00,79.4,59.1,30.25,ENE,68,2.0,4.0,50,0.00,,,0.00,860,WeatherCatV1.21B27,2013-08-24 16:04:00,
2013-08-24 12:09:00,79.6,58.7,30.25,SE,146,0.0,7.0,49,0.00,,,0.00,868,WeatherCatV1.21B27,2013-08-24 16:09:00,
2013-08-24 12:14:00,79.3,59.0,30.25,NE,50,0.0,9.0,50,0.00,,,0.00,870,WeatherCatV1.21B27,2013-08-24 16:14:00,
2013-08-24 12:19:00,79.6,59.3,30.25,NE,50,0.0,3.0,50,0.00,,,0.00,872,WeatherCatV1.21B27,2013-08-24 16:19:00,
2013-08-24 12:24:00,80.5,59.5,30.25,ENE,61,0.0,6.0,49,0.00,,,0.00,933,WeatherCatV1.21B27,2013-08-24 16:24:00,
2013-08-24 12:29:00,80.8,59.2,30.25,NE,54,0.0,1.0,48,0.00,,,0.00,884,WeatherCatV1.21B27,2013-08-24 16:29:00,
2013-08-24 12:34:00,80.6,60.2,30.24,North,350,0.0,3.0,50,0.00,,,0.00,912,WeatherCatV1.21B27,2013-08-24 16:34:00,
2013-08-24 12:39:00,81.2,60.8,30.24,ENE,61,0.0,3.0,50,0.00,,,0.00,907,WeatherCatV1.21B27,2013-08-24 16:39:00,
2013-08-24 12:44:00,79.7,58.8,30.24,SE,137,0.0,1.0,49,0.00,,,0.00,918,WeatherCatV1.21B27,2013-08-24 16:44:00,
2013-08-24 12:49:00,81.1,60.7,30.24,ENE,62,5.0,5.0,50,0.00,,,0.00,937,WeatherCatV1.21B27,2013-08-24 16:49:00,
2013-08-24 12:54:00,82.0,59.8,30.24,NE,50,0.0,4.0,47,0.00,,,0.00,905,WeatherCatV1.21B27,2013-08-24 16:54:00,
2013-08-24 12:59:00,82.1,61.0,30.23,East,80,5.0,9.0,49,0.00,,,0.00,926,WeatherCatV1.21B27,2013-08-24 16:59:00,
2013-08-24 13:04:00,80.7,59.2,30.23,NE,35,3.0,6.0,48,0.00,,,0.00,877,WeatherCatV1.21B27,2013-08-24 17:04:00,
2013-08-24 13:09:00,80.9,59.9,30.23,ENE,74,4.0,5.0,49,0.00,,,0.00,895,WeatherCatV1.21B27,2013-08-24 17:09:00,
2013-08-24 13:14:00,80.9,59.3,30.23,ENE,71,3.0,8.0,48,0.00,,,0.00,919,WeatherCatV1.21B27,2013-08-24 17:14:00,
2013-08-24 13:19:00,81.4,59.8,30.23,NE,44,0.0,1.0,48,0.00,,,0.00,916,WeatherCatV1.21B27,2013-08-24 17:19:00,
2013-08-24 13:24:00,81.4,59.8,30.23,NNW,344,0.0,1.0,48,0.00,,,0.00,921,WeatherCatV1.21B27,2013-08-24 17:24:00,
2013-08-24 13:29:00,81.4,59.2,30.23,East,94,0.0,4.0,47,0.00,,,0.00,923,WeatherCatV1.21B27,2013-08-24 17:29:00,
2013-08-24 13:34:00,81.6,59.4,30.23,East,84,5.0,10.0,47,0.00,,,0.00,925,WeatherCatV1.21B27,2013-08-24 17:34:00,
2013-08-24 13:39:00,81.0,58.2,30.23,South,179,0.0,4.0,46,0.00,,,0.00,923,WeatherCatV1.21B27,2013-08-24 17:39:00,
2013-08-24 13:44:00,81.1,59.5,30.23,South,179,0.0,0.0,48,0.00,,,0.00,949,WeatherCatV1.21B27,2013-08-24 17:44:00,
2013-08-24 13:49:00,82.7,59.8,30.23,NW,310,0.0,1.0,46,0.00,,,0.00,956,WeatherCatV1.21B27,2013-08-24 17:49:00,
2013-08-24 13:54:00,83.6,59.3,30.23,NNW,346,0.0,3.0,44,0.00,,,0.00,940,WeatherCatV1.21B27,2013-08-24 17:54:00,
2013-08-24 13:59:00,83.0,59.4,30.23,East,88,0.0,13.0,45,0.00,,,0.00,919,WeatherCatV1.21B27,2013-08-24 17:59:00,
2013-08-24 14:03:00,82.9,58.7,30.22,East,96,0.0,0.0,44,0.00,,,0.00,916,WeatherCatV1.21B27,2013-08-24 18:03:00,
2013-08-24 14:08:00,83.2,59.0,30.23,ENE,67,0.0,4.0,44,0.00,,,0.00,914,WeatherCatV1.21B27,2013-08-24 18:08:00,
2013-08-24 14:13:00,83.2,59.0,30.22,ENE,66,0.0,0.0,44,0.00,,,0.00,911,WeatherCatV1.21B27,2013-08-24 18:13:00,
2013-08-24 14:18:00,83.3,61.5,30.22,NNW,342,4.0,5.0,48,0.00,,,0.00,905,WeatherCatV1.21B27,2013-08-24 18:18:00,
2013-08-24 14:23:00,82.5,60.8,30.22,NW,323,0.0,3.0,48,0.00,,,0.00,902,WeatherCatV1.21B27,2013-08-24 18:23:00,
2013-08-24 14:28:00,82.8,61.1,30.22,NE,34,1.0,10.0,48,0.00,,,0.00,889,WeatherCatV1.21B27,2013-08-24 18:28:00,
2013-08-24 14:33:00,82.8,61.7,30.22,NE,45,3.0,6.0,49,0.00,,,0.00,888,WeatherCatV1.21B27,2013-08-24 18:33:00,
2013-08-24 14:38:00,82.2,61.7,30.22,West,279,3.0,5.0,50,0.00,,,0.00,879,WeatherCatV1.21B27,2013-08-24 18:38:00,
2013-08-24 14:43:00,82.6,62.0,30.22,ESE,103,1.0,11.0,50,0.00,,,0.00,863,WeatherCatV1.21B27,2013-08-24 18:43:00,
2013-08-24 14:48:00,83.1,61.9,30.22,NW,319,0.0,4.0,49,0.00,,,0.00,868,WeatherCatV1.21B27,2013-08-24 18:48:00,
2013-08-24 14:53:00,82.9,62.3,30.21,NW,326,0.0,5.0,50,0.00,,,0.00,867,WeatherCatV1.21B27,2013-08-24 18:53:00,
2013-08-24 14:58:00,83.0,61.8,30.21,NW,323,1.0,4.0,49,0.00,,,0.00,860,WeatherCatV1.21B27,2013-08-24 18:58:00,
2013-08-24 15:03:00,82.1,61.0,30.21,NNW,327,7.0,11.0,49,0.00,,,0.00,853,WeatherCatV1.21B27,2013-08-24 19:03:00,
2013-08-24 15:08:00,81.8,60.7,30.21,NW,321,5.0,10.0,49,0.00,,,0.00,842,WeatherCatV1.21B27,2013-08-24 19:08:00,
2013-08-24 15:13:00,81.7,61.2,30.21,NW,315,5.0,9.0,50,0.00,,,0.00,831,WeatherCatV1.21B27,2013-08-24 19:13:00,
2013-08-24 15:18:00,81.9,62.0,30.21,North,1,0.0,5.0,51,0.00,,,0.00,824,WeatherCatV1.21B27,2013-08-24 19:18:00,
2013-08-24 15:23:00,82.3,61.2,30.21,East,84,3.0,6.0,49,0.00,,,0.00,817,WeatherCatV1.21B27,2013-08-24 19:23:00,
2013-08-24 15:28:00,82.2,61.7,30.21,NE,36,4.0,7.0,50,0.00,,,0.00,809,WeatherCatV1.21B27,2013-08-24 19:28:00,
2013-08-24 15:33:00,81.7,61.2,30.21,East,80,4.0,4.0,50,0.00,,,0.00,802,WeatherCatV1.21B27,2013-08-24 19:33:00,
2013-08-24 15:38:00,82.0,61.5,30.21,North,356,0.0,6.0,50,0.00,,,0.00,791,WeatherCatV1.21B27,2013-08-24 19:38:00,
2013-08-24 15:43:00,82.5,61.4,30.20,ENE,69,4.0,9.0,49,0.00,,,0.00,779,WeatherCatV1.21B27,2013-08-24 19:43:00,
2013-08-24 15:48:00,82.4,61.9,30.20,ENE,65,3.0,5.0,50,0.00,,,0.00,772,WeatherCatV1.21B27,2013-08-24 19:48:00,
2013-08-24 15:53:00,81.9,61.4,30.20,NE,39,5.0,10.0,50,0.00,,,0.00,759,WeatherCatV1.21B27,2013-08-24 19:53:00,
2013-08-24 15:58:00,81.7,60.7,30.20,NNW,329,2.0,7.0,49,0.00,,,0.00,745,WeatherCatV1.21B27,2013-08-24 19:58:00,
2013-08-24 16:03:00,82.1,61.0,30.20,East,86,3.0,6.0,49,0.00,,,0.00,737,WeatherCatV1.21B27,2013-08-24 20:03:00,
2013-08-24 16:08:00,82.4,61.9,30.20,ENE,73,3.0,5.0,50,0.00,,,0.00,724,WeatherCatV1.21B27,2013-08-24 20:08:00,
2013-08-24 16:13:00,82.5,62.0,30.20,NE,37,4.0,10.0,50,0.00,,,0.00,710,WeatherCatV1.21B27,2013-08-24 20:13:00,
2013-08-24 16:18:00,82.3,61.2,30.20,NE,46,0.0,1.0,49,0.00,,,0.00,701,WeatherCatV1.21B27,2013-08-24 20:18:00,
2013-08-24 16:23:00,82.1,61.6,30.20,ENE,62,6.0,7.0,50,0.00,,,0.00,687,WeatherCatV1.21B27,2013-08-24 20:23:00,
2013-08-24 16:28:00,82.3,61.2,30.20,NNW,335,0.0,9.0,49,0.00,,,0.00,673,WeatherCatV1.21B27,2013-08-24 20:28:00,
2013-08-24 16:33:00,81.8,60.7,30.20,NE,45,2.0,7.0,49,0.00,,,0.00,663,WeatherCatV1.21B27,2013-08-24 20:33:00,
2013-08-24 16:38:00,82.1,61.6,30.20,NE,49,3.0,10.0,50,0.00,,,0.00,647,WeatherCatV1.21B27,2013-08-24 20:38:00,
2013-08-24 16:43:00,82.0,61.5,30.20,NNE,19,0.0,13.0,50,0.00,,,0.00,629,WeatherCatV1.21B27,2013-08-24 20:43:00,
2013-08-24 16:48:00,82.0,61.5,30.20,NE,48,2.0,5.0,50,0.00,,,0.00,619,WeatherCatV1.21B27,2013-08-24 20:48:00,
2013-08-24 16:53:00,81.7,61.2,30.20,NE,46,4.0,10.0,50,0.00,,,0.00,603,WeatherCatV1.21B27,2013-08-24 20:53:00,
2013-08-24 16:58:00,81.6,61.1,30.20,ENE,66,6.0,10.0,50,0.00,,,0.00,589,WeatherCatV1.21B27,2013-08-24 20:58:00,
2013-08-24 17:03:00,81.3,60.9,30.20,NNW,335,0.0,3.0,50,0.00,,,0.00,575,WeatherCatV1.21B27,2013-08-24 21:03:00,
2013-08-24 17:08:00,81.7,60.7,30.20,NE,38,0.0,3.0,49,0.00,,,0.00,559,WeatherCatV1.21B27,2013-08-24 21:08:00,
2013-08-24 17:13:00,81.6,60.6,30.21,NNE,21,0.0,4.0,49,0.00,,,0.00,541,WeatherCatV1.21B27,2013-08-24 21:13:00,
2013-08-24 17:18:00,81.6,60.6,30.21,NE,49,0.0,6.0,49,0.00,,,0.00,526,WeatherCatV1.21B27,2013-08-24 21:18:00,
2013-08-24 17:23:00,81.8,60.7,30.21,NNW,342,0.0,9.0,49,0.00,,,0.00,513,WeatherCatV1.21B27,2013-08-24 21:23:00,
2013-08-24 17:28:00,81.5,60.5,30.21,NW,309,0.0,4.0,49,0.00,,,0.00,496,WeatherCatV1.21B27,2013-08-24 21:28:00,
2013-08-24 17:33:00,81.3,60.9,30.21,NW,326,1.0,2.0,50,0.00,,,0.00,480,WeatherCatV1.21B27,2013-08-24 21:33:00,
2013-08-24 17:38:00,81.1,61.2,30.21,North,1,0.0,9.0,51,0.00,,,0.00,462,WeatherCatV1.21B27,2013-08-24 21:38:00,
2013-08-24 17:43:00,80.7,60.9,30.21,North,354,0.0,4.0,51,0.00,,,0.00,446,WeatherCatV1.21B27,2013-08-24 21:43:00,
2013-08-24 17:48:00,80.4,60.6,30.21,North,1,0.0,2.0,51,0.00,,,0.00,427,WeatherCatV1.21B27,2013-08-24 21:48:00,
2013-08-24 17:53:00,80.6,60.8,30.21,NNW,342,3.0,7.0,51,0.00,,,0.00,413,WeatherCatV1.21B27,2013-08-24 21:53:00,
2013-08-24 17:58:00,80.5,61.2,30.21,NE,38,0.0,1.0,52,0.00,,,0.00,394,WeatherCatV1.21B27,2013-08-24 21:58:00,
2013-08-24 18:03:00,80.5,61.2,30.21,NNE,28,1.0,9.0,52,0.00,,,0.00,376,WeatherCatV1.21B27,2013-08-24 22:03:00,
2013-08-24 18:08:00,80.3,61.6,30.22,NW,321,5.0,7.0,53,0.00,,,0.00,359,WeatherCatV1.21B27,2013-08-24 22:08:00,
2013-08-24 18:13:00,79.7,61.0,30.22,NW,315,2.0,6.0,53,0.00,,,0.00,341,WeatherCatV1.21B27,2013-08-24 22:13:00,
2013-08-24 18:18:00,79.3,61.2,30.22,NE,38,1.0,1.0,54,0.00,,,0.00,322,WeatherCatV1.21B27,2013-08-24 22:18:00,
2013-08-24 18:23:00,79.3,61.2,30.22,NNW,340,1.0,1.0,54,0.00,,,0.00,308,WeatherCatV1.21B27,2013-08-24 22:23:00,
2013-08-24 18:28:00,79.4,61.8,30.21,NNW,327,0.0,3.0,55,0.00,,,0.00,290,WeatherCatV1.21B27,2013-08-24 22:28:00,
2013-08-24 18:33:00,79.5,61.9,30.21,NE,40,1.0,6.0,55,0.00,,,0.00,243,WeatherCatV1.21B27,2013-08-24 22:33:00,
2013-08-24 18:38:00,79.3,61.7,30.21,NNE,29,0.0,4.0,55,0.00,,,0.00,248,WeatherCatV1.21B27,2013-08-24 22:38:00,
2013-08-24 18:43:00,79.0,61.9,30.21,NE,36,0.0,1.0,56,0.00,,,0.00,236,WeatherCatV1.21B27,2013-08-24 22:43:00,
2013-08-24 18:48:00,78.6,61.6,30.22,NE,53,3.0,3.0,56,0.00,,,0.00,207,WeatherCatV1.21B27,2013-08-24 22:48:00,
2013-08-24 18:53:00,78.3,61.8,30.22,North,356,0.0,0.0,57,0.00,,,0.00,178,WeatherCatV1.21B27,2013-08-24 22:53:00,
2013-08-24 18:58:00,78.0,61.5,30.21,NW,320,0.0,0.0,57,0.00,,,0.00,121,WeatherCatV1.21B27,2013-08-24 22:58:00,
2013-08-24 19:03:00,77.9,61.4,30.21,NE,48,0.0,1.0,57,0.00,,,0.00,121,WeatherCatV1.21B27,2013-08-24 23:03:00,
2013-08-24 19:08:00,77.9,61.9,30.21,NE,38,0.0,4.0,58,0.00,,,0.00,93,WeatherCatV1.21B27,2013-08-24 23:08:00,
2013-08-24 19:13:00,77.5,61.5,30.21,NNE,21,0.0,4.0,58,0.00,,,0.00,105,WeatherCatV1.21B27,2013-08-24 23:13:00,
2013-08-24 19:18:00,77.3,61.8,30.21,ENE,73,0.0,5.0,59,0.00,,,0.00,88,WeatherCatV1.21B27,2013-08-24 23:18:00,
2013-08-24 19:22:00,77.0,62.0,30.22,ENE,57,5.0,6.0,60,0.00,,,0.00,62,WeatherCatV1.21B27,2013-08-24 23:22:00,
2013-08-24 19:27:00,76.8,61.4,30.22,NE,54,0.0,3.0,59,0.00,,,0.00,28,WeatherCatV1.21B27,2013-08-24 23:27:00,
2013-08-24 19:32:00,76.4,61.0,30.22,East,86,0.0,7.0,59,0.00,,,0.00,23,WeatherCatV1.21B27,2013-08-24 23:32:00,
2013-08-24 19:37:00,75.6,61.2,30.22,East,84,0.0,2.0,61,0.00,,,0.00,21,WeatherCatV1.21B27,2013-08-24 23:37:00,
2013-08-24 19:42:00,74.8,60.9,30.22,NNE,33,0.0,2.0,62,0.00,,,0.00,19,WeatherCatV1.21B27,2013-08-24 23:42:00,
2013-08-24 19:47:00,74.2,60.8,30.23,NE,48,0.0,6.0,63,0.00,,,0.00,16,WeatherCatV1.21B27,2013-08-24 23:47:00,
2013-08-24 19:52:00,73.7,60.8,30.22,NE,51,0.0,2.0,64,0.00,,,0.00,14,WeatherCatV1.21B27,2013-08-24 23:52:00,
2013-08-24 19:57:00,73.3,60.8,30.23,NE,51,0.0,1.0,65,0.00,,,0.00,11,WeatherCatV1.21B27,2013-08-24 23:57:00,
2013-08-24 20:02:00,72.9,60.9,30.21,NE,52,0.0,0.0,66,0.00,,,0.00,9,WeatherCatV1.21B27,2013-08-25 00:02:00,
2013-08-24 20:07:00,72.6,60.6,30.22,NE,52,0.0,4.0,66,0.00,,,0.00,5,WeatherCatV1.21B27,2013-08-25 00:07:00,
2013-08-24 20:12:00,72.3,60.7,30.22,NE,52,0.0,0.0,67,0.00,,,0.00,0,WeatherCatV1.21B27,2013-08-25 00:12:00,
2013-08-24 20:17:00,71.9,60.8,30.22,ENE,60,0.0,4.0,68,0.00,,,0.00,0,WeatherCatV1.21B27,2013-08-25 00:17:00,
2013-08-24 20:22:00,71.4,60.3,30.22,ENE,59,0.0,1.0,68,0.00,,,0.00,0,WeatherCatV1.21B27,2013-08-25 00:22:00,
2013-08-24 20:27:00,70.9,60.6,30.22,NE,50,0.0,3.0,70,0.00,,,0.00,0,WeatherCatV1.21B27,2013-08-25 00:27:00,
2013-08-24 20:32:00,70.5,60.6,30.23,ENE,62,0.0,5.0,71,0.00,,,0.00,0,WeatherCatV1.21B27,2013-08-25 00:32:00,
2013-08-24 20:37:00,70.1,60.2,30.23,East,85,0.0,0.0,71,0.00,,,0.00,0,WeatherCatV1.21B27,2013-08-25 00:37:00,
2013-08-24 20:42:00,69.8,60.3,30.23,East,85,0.0,0.0,72,0.00,,,0.00,0,WeatherCatV1.21B27,2013-08-25 00:42:00,
2013-08-24 20:47:00,69.6,60.5,30.24,ENE,65,0.0,1.0,73,0.00,,,0.00,0,WeatherCatV1.21B27,2013-08-25 00:47:00,
2013-08-24 20:52:00,69.3,60.3,30.24,ENE,66,0.0,0.0,73,0.00,,,0.00,0,WeatherCatV1.21B27,2013-08-25 00:52:00,
2013-08-24 20:57:00,69.1,60.5,30.24,ENE,65,0.0,3.0,74,0.00,,,0.00,0,WeatherCatV1.21B27,2013-08-25 00:57:00,
2013-08-24 21:02:00,68.8,60.2,30.23,ENE,65,0.0,4.0,74,0.00,,,0.00,0,WeatherCatV1.21B27,2013-08-25 01:02:00,
2013-08-24 21:07:00,68.6,60.3,30.23,ENE,61,0.0,1.0,75,0.00,,,0.00,0,WeatherCatV1.21B27,2013-08-25 01:07:00,
2013-08-24 21:12:00,68.4,60.2,30.23,ENE,61,0.0,1.0,75,0.00,,,0.00,0,WeatherCatV1.21B27,2013-08-25 01:12:00,
2013-08-24 21:17:00,68.3,60.4,30.23,ENE,57,0.0,0.0,76,0.00,,,0.00,0,WeatherCatV1.21B27,2013-08-25 01:17:00,
2013-08-24 21:22:00,68.0,60.1,30.23,ENE,57,0.0,1.0,76,0.00,,,0.00,0,WeatherCatV1.21B27,2013-08-25 01:22:00,
2013-08-24 21:27:00,67.9,60.4,30.23,ENE,57,0.0,0.0,77,0.00,,,0.00,0,WeatherCatV1.21B27,2013-08-25 01:27:00,
2013-08-24 21:32:00,67.7,60.2,30.23,ENE,57,0.0,0.0,77,0.00,,,0.00,0,WeatherCatV1.21B27,2013-08-25 01:32:00,
2013-08-24 21:37:00,67.5,60.4,30.23,ENE,57,0.0,0.0,78,0.00,,,0.00,0,WeatherCatV1.21B27,2013-08-25 01:37:00,
2013-08-24 21:42:00,67.2,60.1,30.23,ENE,57,0.0,0.0,78,0.00,,,0.00,0,WeatherCatV1.21B27,2013-08-25 01:42:00,
2013-08-24 21:47:00,67.0,60.3,30.23,ENE,57,0.0,0.0,79,0.00,,,0.00,0,WeatherCatV1.21B27,2013-08-25 01:47:00,
2013-08-24 21:52:00,66.8,60.4,30.23,ENE,57,0.0,0.0,80,0.00,,,0.00,0,WeatherCatV1.21B27,2013-08-25 01:52:00,
2013-08-24 21:57:00,66.6,60.2,30.24,ENE,57,0.0,0.0,80,0.00,,,0.00,0,WeatherCatV1.21B27,2013-08-25 01:57:00,
2013-08-24 22:02:00,66.4,60.4,30.24,ENE,57,0.0,0.0,81,0.00,,,0.00,0,WeatherCatV1.21B27,2013-08-25 02:02:00,
2013-08-24 22:07:00,66.2,60.2,30.23,ENE,57,0.0,0.0,81,0.00,,,0.00,0,WeatherCatV1.21B27,2013-08-25 02:07:00,
2013-08-24 22:12:00,66.0,60.0,30.23,ENE,57,0.0,0.0,81,0.00,,,0.00,0,WeatherCatV1.21B27,2013-08-25 02:12:00,
2013-08-24 22:17:00,65.8,60.1,30.23,ENE,57,0.0,0.0,82,0.00,,,0.00,0,WeatherCatV1.21B27,2013-08-25 02:17:00,
2013-08-24 22:22:00,65.6,60.0,30.23,ENE,57,0.0,2.0,82,0.00,,,0.00,0,WeatherCatV1.21B27,2013-08-25 02:22:00,
2013-08-24 22:27:00,65.4,60.1,30.23,ENE,57,0.0,1.0,83,0.00,,,0.00,0,WeatherCatV1.21B27,2013-08-25 02:27:00,
2013-08-24 22:32:00,65.2,60.2,30.23,ENE,57,0.0,0.0,84,0.00,,,0.00,0,WeatherCatV1.21B27,2013-08-25 02:32:00,
2013-08-24 22:37:00,65.0,60.0,30.24,ENE,57,0.0,1.0,84,0.00,,,0.00,0,WeatherCatV1.21B27,2013-08-25 02:37:00,
2013-08-24 22:42:00,64.9,59.9,30.23,ENE,57,0.0,0.0,84,0.00,,,0.00,0,WeatherCatV1.21B27,2013-08-25 02:42:00,
2013-08-24 22:47:00,64.7,60.1,30.23,ENE,57,0.0,1.0,85,0.00,,,0.00,0,WeatherCatV1.21B27,2013-08-25 02:47:00,
2013-08-24 22:52:00,64.6,60.0,30.23,East,93,1.0,4.0,85,0.00,,,0.00,0,WeatherCatV1.21B27,2013-08-25 02:52:00,
2013-08-24 22:57:00,64.6,60.0,30.23,ENE,74,0.0,5.0,85,0.00,,,0.00,0,WeatherCatV1.21B27,2013-08-25 02:57:00,
2013-08-24 23:02:00,64.7,60.1,30.22,ENE,73,0.0,3.0,85,0.00,,,0.00,0,WeatherCatV1.21B27,2013-08-25 03:02:00,
2013-08-24 23:07:00,64.8,60.2,30.22,East,81,0.0,0.0,85,0.00,,,0.00,0,WeatherCatV1.21B27,2013-08-25 03:07:00,
2013-08-24 23:12:00,64.9,60.3,30.22,East,96,0.0,1.0,85,0.00,,,0.00,0,WeatherCatV1.21B27,2013-08-25 03:12:00,
2013-08-24 23:17:00,65.0,60.0,30.23,East,96,0.0,0.0,84,0.00,,,0.00,0,WeatherCatV1.21B27,2013-08-25 03:17:00,
2013-08-24 23:22:00,65.0,60.0,30.22,East,96,0.0,0.0,84,0.00,,,0.00,0,WeatherCatV1.21B27,2013-08-25 03:22:00,
2013-08-24 23:27:00,65.0,60.0,30.22,East,96,0.0,0.0,84,0.00,,,0.00,0,WeatherCatV1.21B27,2013-08-25 03:27:00,
2013-08-24 23:32:00,64.9,59.9,30.23,East,96,0.0,0.0,84,0.00,,,0.00,0,WeatherCatV1.21B27,2013-08-25 03:32:00,
2013-08-24 23:37:00,64.9,59.9,30.22,ESE,102,0.0,1.0,84,0.00,,,0.00,0,WeatherCatV1.21B27,2013-08-25 03:37:00,
2013-08-24 23:42:00,64.8,59.8,30.22,ESE,102,0.0,0.0,84,0.00,,,0.00,0,WeatherCatV1.21B27,2013-08-25 03:42:00,
2013-08-24 23:47:00,64.8,59.8,30.22,ESE,103,0.0,0.0,84,0.00,,,0.00,0,WeatherCatV1.21B27,2013-08-25 03:47:00,
2013-08-24 23:52:00,64.7,59.8,30.22,ESE,102,0.0,0.0,84,0.00,,,0.00,0,WeatherCatV1.21B27,2013-08-25 03:52:00,
2013-08-24 23:57:00,64.6,59.7,30.22,ESE,103,0.0,0.0,84,0.00,,,0.00,0,WeatherCatV1.21B27,2013-08-25 03:57:00,